Hourly Data Report for September 08, 2017

All times are specified in Local Standard Time (LST). Add 1 hour to adjust for Daylight Saving Time where and when it is observed.

MISCOU ISLAND (AUT)
NEW BRUNSWICK

48°00'32.002" N
64°29'39.008" W
4.00 m
8103050
71719
WMI

Download Data

Hourly Data (September 2017)
Hourly Data Report for September 8, 2017
Temp Definition
°C
Dew Point Temp Definition
°C
Rel Hum Definition
%
Wind Dir Definition
10's deg

Wind Spd Definition
km/h
Visibility Definition
km
Stn Press Definition
kPa
Hmdx Definition


Wind Chill Definition


Weather Definition


TIME
00:00 16.5 14.1 86 22 27   100.52     LegendNANA
01:00 16.1 13.6 85 24 25   100.57     LegendNANA
02:00 15.4 13.4 88 23 22   100.61     LegendNANA
03:00 14.6 12.9 89 23 23   100.61     LegendNANA
04:00 14.9 13.3 91 22 20   100.67     LegendNANA
05:00 14.8 13.0 89 23 22   100.71     LegendNANA
06:00 14.9 12.5 86 23 22   100.77     LegendNANA
07:00 14.8 12.6 87 23 20   100.85     LegendNANA
08:00 16.2 12.9 81 23 23   100.95     LegendNANA
09:00 16.6 13.1 80 24 22   101.03     LegendNANA
10:00 17.3 13.1 76 24 24   101.10     LegendNANA
11:00 18.0 13.2 74 24 27   101.13     LegendNANA
12:00 18.8 13.1 69 24 26   101.17     LegendNANA
13:00 19.4 13.1 67 26 21   101.22     LegendNANA
14:00 20.0 12.3 61 26 20   101.25     LegendNANA
15:00 19.3 13.1 67 26 20   101.30     LegendNANA
16:00 17.6 12.3 71 24 18   101.37     LegendNANA
17:00 16.7 12.7 77 24 15   101.44     LegendNANA
18:00 16.1 12.8 81 24 13   101.49     LegendNANA
19:00 14.6 12.0 85 4 14   101.60     LegendNANA
20:00 14.5 11.5 82 8 14   101.72     LegendNANA
21:00 14.4 11.5 83 8 14   101.77     LegendNANA
22:00 14.3 11.3 82 7 13   101.77     LegendNANA
23:00 13.8 11.1 84 10 10   101.83     LegendNANA

Notes on Data Quality.

Legend

  • E = Estimated
  • M = Missing
  • NA = Not Available
  • ‡ = Partner data that is not subject to review by the National Climate Archives
Date modified: